Showing default

HULIANWANG DIGUI-09, 62331

Orbit data source: Space-Track

HULIANWANG DIGUI-09, 62331 is a payload satellite owned by Zhongguo Xingwang (CN) in LEO that was launched on Mon, 16 Dec 2024 UTC via a CHANG ZHENG 5B/YZ-2 launch vehicle from the Wenchang Satellite Launch Center (WSC). Payload-class satellites include a variety of spacecraft equipped with specific instruments for various scientific and technological missions. These include communications satellites like Starlink; space stations such as the ISS; scientific satellites like the Hubble; Earth observation satellites from companies like Planet Labs, Umbra, and HawkEye 360; GPS; miniature CubeSats for education and research; and military/defense satellites.

Loading next visibility...
Identifier
62331, 2024-240J
Orbit
LEO
Country
Flag of CNCN / PRC
Related business
Manufacturer
CAST?
Mission
Operational Civil Communications
Bus & Motor
GUOWANG C, Unknown motor
Mass
~800 kg wet, ~800 kg dry
Launch date (UTC)
2024-12-16 (10 months ago)
Launch vehicle
CHANG ZHENG 5B/YZ-2
Launch site
Wenchang Satellite Launch Center (WSC)
Object type
Payload
Rocket body
Debris
Shape & HBR
Box + 2 Pan, 5.0 m
Radar Cross Section
5.935 m², Large (>1 m²)

Expand to show TLE details & history
Last TLE update: 5 hours ago

TLE from 5 hours ago
0 HULIANWANG DIGUI-09
1 62331U 24240J   25290.88944032  .00000034  00000-0  45913-4 0  9996
2 62331  86.4960  64.9992 0001765 109.1815 250.9510 13.24413786 40569
Epoch: 2025-10-17T21:20Z
TLE epoch observation values (Epoch: 2025-10-17T21:20:47.643Z)
Latitude
-0.00005°
Longitude
78.17235°
Altitude
1,171.237 km
Speed
7.268 km/s
True Right ascension
04h 19m 59s
True Declination
0° 00' 00"
Sunlit
Object was in full shadow at epoch
Visualization orbit readout
Latitude
Unknown
Longitude
Unknown
Altitude
Unknown
Speed
Unknown
Apparent Right ascension
Unknown
Apparent Declination
Unknown
Sunlit
N/A
Visualization observer readout
Local Sidereal Time
21:33:40
Azimuth
Unknown
Elevation
Unknown
Doppler factor
Unknown
Orbital elements
Apogee altitude
1,166.359 km
Perigee altitude
1,163.696 km
Semi-major axis
7,543.165 km
Eccentricity
0.00018
Inclination
86.496°
RAAN
64.9992°
Arg. of periapsis
109.1815°
True anomaly
250.93188°
Mean anomaly
250.951°
Eccentric anomaly
250.94144°
Mean motion
3.31293 °/min
Orbital period
108.67 mins
BSTAR
0.000045913
Loading maneuver chart data...
Computing Atmospheric mass density...
Loading historical data...
Loading historical data...
Loading historical data...
Loading historical data...
Loading historical data...
Loading historical data...
Loading historical data...

Documentation

Showing up to 5 results
|